Find Starlink 34564

NORAD ID: 64852 Int'l Des: 2025-152 Owner: SPXS Country: US Constellation: starlink operational
LEOCIRCULARRETROGRADESSO

当前视图

正在加载3D地球...

关于 Starlink 34564

正在加载描述...

即将过境

Passes for default location (London). Set your location on the main map for personalized predictions.

高度历史

Loading altitude history...

两行轨道根数

1 64852U 25152L 26150.00992551 .00006553 00000-0 45765-3 0 9994
2 64852 97.4275 5.1762 0001999 60.9741 299.1686 15.05660814 47656
Epoch: May 30, 2026 • Age: 12 hours

当前状态

高度 576.6 km
速度 7.57 km/s
星下点 -70.37°S, 51.25°W
发射日期 Jul 19, 2025
运行时间 0.8 years
类型 internet

技术详情

分类 Payload
质量 575.00 kg
干质量 530.00 kg
总质量 575.00 kg
长度 0.30 m
直径 4.10 m
跨度 29.00 m
形状 Box + pan
制造商 SPXS
平台类型 Starlink V2MO
阶段状态 In Orbit
所有者/国家 SPXS/US

Most Searched